This is the latest recevied weather packets stored in our database for station/object KI6SYE. If no packets are shown the sender has not sent any weather packets the latest 10 day(s).
| Time | Temp. | Humidity | Pressure | Rain* | Wind** | Luminosity | Snow |
|---|---|---|---|---|---|---|---|
| 1777236164 | 17.78° C | 62% | 1014.8 hPa | 0 mm | - | 764 W/m² | - |
| 1777235860 | 17.78° C | 64% | 1014.7 hPa | 0 mm | - | 771 W/m² | - |
| 1777235557 | 17.78° C | 63% | 1014.8 hPa | 0 mm | - | 773 W/m² | - |
| 1777235253 | 17.78° C | 64% | 1014.7 hPa | 0 mm | - | 777 W/m² | - |
| 1777234950 | 17.22° C | 66% | 1014.4 hPa | 0 mm | - | 781 W/m² | - |
| 1777234646 | 17.22° C | 65% | 1014.7 hPa | 0 mm | - | 783 W/m² | - |
| 1777234341 | 17.22° C | 65% | 1014.5 hPa | 0 mm | - | 788 W/m² | - |
| 1777234037 | 18.33° C | 65% | 1014.4 hPa | 0 mm | - | 789 W/m² | - |
| 1777233734 | 17.78° C | 66% | 1014.6 hPa | 0 mm | - | 789 W/m² | - |
| 1777233429 | 17.22° C | 66% | 1014.6 hPa | 0 mm | - | 789 W/m² | - |
| 1777233123 | 17.78° C | 68% | 1014.5 hPa | 0 mm | - | 789 W/m² | - |
| 1777232820 | 17.22° C | 69% | 1014.4 hPa | 0 mm | - | 789 W/m² | - |
| 1777232518 | 17.22° C | 68% | 1014.3 hPa | 0 mm | - | 789 W/m² | - |
| 1777232216 | 17.78° C | 69% | 1014.3 hPa | 0 mm | - | 790 W/m² | - |
| 1777231911 | 17.78° C | 69% | 1014 hPa | 0 mm | - | 789 W/m² | - |
| 1777231609 | 17.22° C | 69% | 1014.4 hPa | 0 mm | - | 789 W/m² | - |
| 1777231305 | 17.22° C | 69% | 1014.5 hPa | 0 mm | - | 789 W/m² | - |
| 1777231001 | 17.22° C | 68% | 1014.3 hPa | 0 mm | - | 789 W/m² | - |
| 1777230697 | 17.78° C | 67% | 1014.6 hPa | 0 mm | - | 790 W/m² | - |
| 1777230392 | 17.22° C | 69% | 1014.4 hPa | 0 mm | - | 789 W/m² | - |
| 1777230089 | 17.22° C | 68% | 1014.6 hPa | 0 mm | - | 787 W/m² | - |
| 1777229786 | 17.22° C | 66% | 1014.8 hPa | 0 mm | - | 779 W/m² | - |
| 1777229483 | 16.67° C | 68% | 1014.5 hPa | 0 mm | - | 777 W/m² | - |
| 1777229180 | 17.22° C | 68% | 1014.5 hPa | 0 mm | - | 773 W/m² | - |
| 1777228877 | 16.67° C | 71% | 1014.5 hPa | 0 mm | - | 768 W/m² | - |
* Rain latest hour (hover to see other rain measurements)
** Current wind speed in m/s (hover to see current wind gust speed)